Other Public Products
Issued by NWS Grand Forks, ND

Home | Current Version | Previous Version | Text Only | Print | Product List | Glossary On
Versions: 1 2 3 4 5 6 7 8 9 10 11 12 13 14 15 16 17 18 19 20 21 22 23 24 25 26 27 28 29 30 31 32 33 34 35 36 37 38 39 40 41 42 43 44 45 46 47 48 49 50
000
FPUS83 KFGF 021510
OPUFGF
PRAIRIE TO PINES WEATHER ROUNDUP
NATIONAL WEATHER SERVICE EASTERN NORTH DAKOTA/GRAND FORKS ND
900 AM CST MON MAR 02 2015

 **SATELLITE DATA USED TO AUGMENT SKY COVER AT AUTOMATED STATIONS**
 *****  WEATHER ACROSS EASTERN NORTH DAKOTA  *****

CITY           SKY/WX    TMP DP  RH WIND       PRES   REMARKS
GRAND FORKS    MOSUNNY    4   0  83 SE9       30.31R WCI -10
GRAND FORKS AF MOSUNNY   11   5  76 S7        30.30R WCI   1
GRAND CITY NWS   N/A      7 N/A N/A S12         N/A  WCI  -9
BUXTON         NOT AVBL
DEVILS LAKE    SUNNY     12   5  73 S15       30.19F WCI  -4
FARGO          MOSUNNY   11   4  73 S9        30.37R WCI  -2
WAHPETON ARPT  SUNNY     12   5  73 S6        30.39F WCI   3
$$

 *****  WEATHER ACROSS CENTRAL AND WESTERN NORTH DAKOTA  *****

CITY           SKY/WX    TMP DP  RH WIND       PRES   REMARKS
JAMESTOWN      SUNNY     10   4  76 S12       30.24F WCI  -5
BISMARCK       SUNNY     14  11  87 SE9       30.14F WCI   2
MINOT          SUNNY     15   8  73 S16       30.05F WCI  -1
MINOT AFB      SUNNY     13   9  86 SE13      30.05F WCI  -2
GARRISON         N/A     13  10  88 S13       30.05F WCI  -2
WILLISTON      PTSUNNY   18   9  68 S5        29.94F WCI  11
DICKINSON      SUNNY     17  11  77 S21G26    29.94F WCI   0
HETTINGER      SUNNY     17   9  70 SE14      29.97F WCI   3
$$

 *****  OTHER OBSERVATIONS NORTHEAST NORTH DAKOTA  *****

CITY           SKY/WX    TMP DP  RH WIND       PRES   REMARKS
WALHALLA         N/A     10   9  92 SW12      30.22F WCI  -4
LANGDON        NOT AVBL
CAVALIER       FAIR       7   3  85 S8        30.25S WCI  -6
GRAFTON        NOT AVBL
CANDO          FAIR      10   7  85 S14       30.17F WCI  -5
FORT TOTTEN    NOT AVBL
ROLLA          FAIR       5   1  85 SW15      30.11S WCI -13
RUGBY          FAIR      10   7  85 S12G20    30.12F WCI  -4
 ***** THE ABOVE OBSERVATIONS ARE NON NWS ARE NOT QUALITY
        CONTROLLED AND MAY MIS-REPORT RAIN FOR SNOW...
$$

 *****  OTHER OBSERVATIONS SOUTHEAST NORTH DAKOTA *****

CITY           SKY/WX    TMP DP  RH WIND       PRES   REMARKS
COOPERSTOWN    NOT AVBL
VALLEY CITY    FAIR       7   7 100 S13       30.28F WCI  -9
OAKES            N/A      5   3  92 S8        30.31F WCI  -8
GWINNER        SUNNY     12   7  79 S10       30.33F WCI  -1
SHEYENNE NWR     N/A     12   6  77 SW7       29.95S WCI   1
BUFFALO        NOT AVBL
WYNDMERE         N/A     12   5  73 S5          N/A  WCI   4
 ***** THE ABOVE OBSERVATIONS ARE NON NWS ARE NOT QUALITY
       CONTROLLED AND MAY MIS-REPORT RAIN FOR SNOW...
$$

  *****  WEATHER ACROSS NORTHERN MINNESOTA  *****

CITY           SKY/WX    TMP DP  RH WIND       PRES   REMARKS
FLAG ISLAND    MOSUNNY   -6  -9  84 SE7       30.27S WCI -20
WARROAD        MOSUNNY    1  -2  85 S6        30.28S WCI -10
ROSEAU         MOSUNNY    0  -6  78 S8        30.28S WCI -15
HALLOCK        NOT AVBL
THF RVR FALLS  MOSUNNY    0  -2  92 S5        30.31S WCI -10
HALSTAD        NOT AVBL
FOSSTON        MOSUNNY    3   1  92 S6        30.33R WCI  -8
BAUDETTE       MOSUNNY   -3  -7  82 S3        30.27F
WASKISH        MOSUNNY   10   7  85 CALM      30.31R
CROOKSTON      MOSUNNY    5   0  78 S12       30.35R WCI -11
$$
  *****  WEATHER ACROSS CENTRAL AND WEST MINNESOTA  *****

CITY           SKY/WX    TMP DP  RH WIND       PRES   REMARKS
BEMIDJI        MOSUNNY    4   1  88 SW7       30.32R WCI  -8
PARK RAPIDS    MOSUNNY    7   3  84 S5        30.34R WCI  -2
WADENA         MOSUNNY    7   3  85 CALM      30.37R
DETROIT LAKES  MOSUNNY   10   9  92 SW5       30.35R WCI   2
MOORHEAD       MOSUNNY   10   7  85 S9        30.38R WCI  -2
FERGUS FALLS   MOSUNNY   10   1  67 S9        30.43R WCI  -2
ELBOW LAKE     FAIR      10   4  77 S10       30.39S WCI  -3
MORRIS MN      SUNNY     16   7  67 S8        30.39F WCI   5
STAPLES        MOSUNNY   10   9  92 S5        30.38R WCI   2
WHEATON        SUNNY     12   3  67 S9        30.41  WCI   0
$$
  *****  WEATHER ELSEWHERE ACROSS MINNESOTA  *****

CITY           SKY/WX    TMP DP  RH WIND       PRES   REMARKS
DULUTH         SUNNY     11   4  73 W6        30.35R WCI   1
INTRNTL FALLS  MOSUNNY    3   0  87 CALM      30.30F
ELY            NOT AVBL
CLOQUET        SUNNY     10   5  79 W3        30.36S
BRAINERD       MOSUNNY    7   5  91 SW3       30.39R
HIBBING        MOSUNNY    5   0  79 VRB3      30.33S
ALEXANDRIA     MOSUNNY   11   6  81 S12       30.40R WCI  -3
SAINT CLOUD    SUNNY     13   8  81 SW6       30.45R WCI   4
MINNEAPOLIS    SUNNY     15   9  76 SW6       30.51R WCI   6
$$

  *****  WEATHER ACROSS SOUTH DAKOTA  *****

CITY           SKY/WX    TMP DP  RH WIND       PRES   REMARKS
SIOUX FALLS    PTSUNNY   19  12  74 SE13      30.41F WCI   6
BROOKINGS      NOT AVBL
WATERTOWN      MOSUNNY    8   4  83 S9        30.34F WCI  -5
HURON          MOSUNNY   15  12  88 S12       30.35F WCI   2
SISSETON         N/A     18   8  65 S9        30.36F WCI   7
ABERDEEN       SUNNY     16   8  71 S14       30.32F WCI   2
MITCHELL       PTSUNNY   20  16  84 SE13      30.38F WCI   7
PIERRE         MOSUNNY   21  15  78 SE14      30.17F WCI   8
MOBRIDGE       SUNNY     19  13  77 SE15      30.12F WCI   5
RAPID CITY     MOSUNNY   24  14  65 S17G25    29.94F WCI  11
$$

  *****  SOME WEATHER IN NEARBY STATES *****

CITY           SKY/WX    TMP DP  RH WIND       PRES   REMARKS
GLASGOW MT     SUNNY     17   9  70 SE13      29.81F WCI   4
GREAT FALLS MT CLOUDY    29  12  49 W5        29.82R WCI  24
CHEYENNE WY    CLOUDY    20  18  92 S9        29.92F FOG     WCI   9
SCOTTSBLUFF NE PTSUNNY   31  21  66 S13       30.01F WCI  21
OMAHA NE       PTSUNNY   25  16  68 SE8       30.48R WCI  16
DES MOINES IA  CLOUDY    24  11  57 E7        30.52S WCI  16
DAVENPORT IA   SUNNY     11   6  81 NW5       30.53S WCI   3
CHICAGO IL     MOSUNNY   20  11  68 N9        30.50R WCI   9
EAU CLAIRE WI  SUNNY     13   5  70 SW6       30.48R WCI   4
LA CROSSE WI   SUNNY     18  10  71 CALM      30.52R
$$

  *****  SOME NATIONAL WEATHER *****

CITY           SKY/WX    TMP DP  RH WIND       PRES   REMARKS
LA GUARDIA NY  PTSUNNY   34  23  64 NW24G30   30.12R WCI  21
RALEIGH NC     FOG       41  39  93 CALM      30.25R VSB 3/4
ATLANTA GA     CLOUDY    51  49  92 NW9       30.34R FOG
NEW ORLEANS LA CLOUDY    67  64  90 S7        30.28R FOG
OKLAHOMA CITY  CLOUDY    30  21  69 NE9       30.39F WCI  22
ALBUQUERQUE NM PTSUNNY   36  29  75 N12       30.05S
SALT LAKE CITY CLOUDY    39  32  76 S3        29.78F
LOS ANGELES CA MOCLDY    49  47  93 VRB3      29.91S
BOISE ID       CLEAR     30  20  66 SE9       29.84S WCI  22
SEATTLE WA     CLOUDY    42  36  79 N10       30.01R
$$

*** WEATHER ACROSS MANITOBA...SASKATCHEWAN AND ONTARIO ***
                ***ONTARIO***

CITY           SKY/WX    TMP DP  RH WIND       PRES   REMARKS
GERALDTON      MOSUNNY    3  -8  60 NW9       30.24R WCI -11
THUNDER BAY    SUNNY     10  -2  56 W9        30.36R WCI  -2
SIOUX LOOKOUT  SUNNY      1  -4  78 SW6       30.25S WCI -10
TORONTO        MOSUNNY   25  14  63 NW24G30   30.24R WCI   9
BIG TROUT LK   SUNNY     -9 -17  70 SW6       30.07R WCI -23
PICKLE LAKE    SUNNY      1  -9  60 W8        30.16S WCI -12
DRYDEN         SUNNY      3   0  85 SW8       30.25R WCI -10
KENORA         SUNNY      1   0  92 S8        30.24S WCI -12
$$
                *** MANITOBA***

CITY           SKY/WX    TMP DP  RH WIND       PRES   REMARKS
BRANDON        CLOUDY    -8 -13  77 VRB2      30.09F
DAUPHIN        SUNNY     16   7  67 SW5       30.01F WCI   9
ISLAND LAKE    PTSUNNY    0  -9  65 SE3       30.02F
PILOT MOUND      N/A     -4  -8  84 S8          N/A  WCI -19
THE PAS        CLOUDY     9   1  72 S9        29.80F WCI  -5
THOMPSON       CLOUDY     3  -4  72 S8        29.79F WCI -10
WINNIPEG       CRYSTALS   1  -4  78 S12       30.22F WCI -15
LYNN LAKE      LGT SNOW  10   7  85 SW12      29.61F WCI  -4
CHURCHILL      CRYSTALS -18 -26  69 E5        29.87F WCI -31
GILLAM         CLOUDY     3  -9  55 S14       29.85F WCI -15
$$
                ***SASKATCHEWAN***

CITY           SKY/WX    TMP DP  RH WIND       PRES   REMARKS
ESTEVAN        NOT AVBL
KINDERSLEY     FLURRIES  19  16  86 NW20G26   29.74R WCI   4
LLOYDMINSTER   NOT AVBL
PRINCE ALBERT  CLOUDY     0  -4  85 E3        29.73F
REGINA         PTSUNNY    7   3  85 S15       29.80F WCI -11


USA.gov is the U.S. government's official web portal to all federal, state and local government web resources and services.